Location: Bavelincourt
(49.9853°N, 2.4543°E)
Time: 22:56:56
(UTC+00:00)

Daily predictions for brighter satellites

Satellite Brightness Start Highest point End
(mag) Time Altitude Azimuth Time Altitude Azimuth Time Altitude Azimuth
Cosmos 2333 Rocket 2.8 17:47:21 10° SW 17:52:58 63° WNW 17:58:38 10° NNE
Okean 3 3.6 17:51:54 10° NNW 17:56:03 81° W 18:00:10 10° S
Cosmos 1340 Rocket 3.1 17:53:10 10° NNW 17:57:14 77° W 18:01:13 10° S
COSMOS 2428 2.8 17:52:01 10° S 17:57:33 59° ESE 18:03:08 10° NE
SJ-6B 4.3 17:57:09 10° ESE 17:59:57 19° ENE 18:02:44 10° NNE
Okean 1-7 3.1 17:55:44 10° N 18:00:06 90° ENE 18:04:27 10° S
Okean O Rocket 3.1 18:03:01 10° ESE 18:06:09 19° ENE 18:09:20 10° NNE
Helios 1A 4.2 18:03:01 10° N 18:06:56 46° WNW 18:10:51 10° SW
Cosmos 2219 Rocket 2.5 18:01:55 10° SW 18:07:29 72° WNW 18:13:08 10° NNE
Cosmos 1470 Rocket 3.9 18:04:14 10° SSW 18:08:36 72° W 18:13:03 10° N
Meteor PRIRODA 3.7 18:05:05 10° S 18:08:37 76° WSW 18:12:12 10° NNW
Tiangong 0.1 18:07:27 10° SSW 18:09:15 14° SSE 18:11:02 10° SE
USA 305 4.2 18:11:55 10° W 18:13:18 15° SW 18:14:41 10° S
Cosmos 405 4.1 18:12:34 10° NE 18:13:55 13° ENE 18:14:18 13° ENE
NOSS 2-3 (C) 4.2 18:13:19 10° WSW 18:17:04 52° NW 18:21:30 10° NE
CZ-4B R/B 2.5 18:15:15 10° SSE 18:18:44 89° ENE 18:22:17 10° NNW
NOSS 2-2 (E) 3.3 18:15:57 10° SW 18:19:08 60° NW 18:22:28 10° NE
NOSS 2-3 (D) 4.2 18:18:39 10° WSW 18:22:22 50° NW 18:26:46 10° NE
GEOS 3 Rocket 3.7 18:19:28 10° NE 18:24:54 89° NW 18:30:13 10° SW
PSLV R/B 4.5 18:23:09 10° SE 18:26:41 34° ENE 18:30:17 10° N
NOSS 3-1 (A) 3.5 18:23:21 10° S 18:28:06 43° ESE 18:33:42 10° NE
SME Rocket 4.2 18:23:27 10° SE 18:29:23 40° ENE 18:33:40 10° N
Cosmos 1733 Rocket 4.1 18:27:37 10° SE 18:31:08 24° E 18:34:39 10° NE
Cosmos 1975 4.2 18:28:01 10° SSW 18:31:42 42° WNW 18:35:26 10° N
IGS 5A 3.3 18:29:42 10° SSE 18:33:48 82° ENE 18:37:55 10° NNW
SPOT 1/Viking Rocket 4.5 18:30:18 14° ESE 18:33:51 29° ENE 18:38:12 10° N
Resurs 01 Rocket 3.2 18:32:25 16° E 18:33:52 18° ENE 18:36:54 10° NNE
USA 186 3.2 18:35:27 19° ENE 18:35:35 19° ENE 18:37:48 10° NNE
Landsat 4 4.0 18:33:09 11° SE 18:36:27 41° ENE 18:39:54 10° N
CZ-4B DEB 4.2 18:32:07 10° SSE 18:37:34 88° WSW 18:43:03 10° NNW
SKYMED 2 4.4 18:33:25 10° N 18:37:40 54° WNW 18:41:54 10° SSW
Cosmos 1269 Rocket 4.0 18:34:33 10° SSW 18:39:48 70° ESE 18:45:06 10° NNE
NOSS 2-2 (D) 3.6 18:37:42 10° WSW 18:40:50 51° NW 18:44:07 10° NE
Cosmos 1980 3.8 18:36:04 10° S 18:41:33 55° ESE 18:47:04 10° NE
NOSS 2-2 (C) 3.7 18:42:04 10° WSW 18:45:11 48° NW 18:48:27 10° NE
Cosmos 2242 Rocket 3.7 18:41:20 10° NNW 18:45:52 84° W 18:50:24 10° S
Cosmos 1933 Rocket 4.4 18:42:47 10° SSW 18:47:03 53° WNW 18:51:20 10° N
Okean-O 3.9 18:46:45 20° ENE 18:47:40 21° ENE 18:51:01 10° NNE
Cosmos 1766 3.1 18:43:54 10° S 18:47:41 86° E 18:51:28 10° N
CZ-4B R/B 3.1 18:42:58 10° SSE 18:48:12 65° ENE 18:53:31 10° N
Cosmos 1867 3.7 18:43:29 10° SSW 18:48:44 52° ESE 18:54:03 10° NE
Cosmos 614 Rocket 3.9 18:43:50 10° SSW 18:48:53 86° WNW 18:54:00 10° NNE
Okean 2 4.4 18:46:38 10° NNW 18:50:30 47° W 18:54:22 10° SSW
Cosmos 1378 Rocket 4.2 18:46:41 10° N 18:50:38 33° ENE 18:52:14 25° ESE
SL-08 R/B 4.3 18:45:53 10° N 18:50:42 52° WNW 18:55:27 10° SW
Cosmos 1140 Rocket 4.2 18:46:53 10° SSE 18:51:18 30° E 18:55:45 10° NE
Cosmos 2278 Rocket 2.7 18:45:41 10° NW 18:51:18 62° WSW 18:56:51 10° SSE
MOS 1-B 4.3 18:49:36 10° SSE 18:55:20 71° ENE 19:01:07 10° NNW
ISS -0.8 18:54:30 10° WSW 18:55:32 11° SW 18:56:33 10° SSW
CZ-4C R/B 3.4 18:54:15 10° NNE 18:57:29 37° E 18:59:36 18° SSE
Feng Yun 1-1 Rocket 4.3 18:52:06 10° SSE 18:57:47 62° ENE 19:03:21 10° N
PAYLOAD B 4.3 18:52:16 10° SSE 18:57:49 81° WSW 19:03:24 10° NNW
Cosmos 1605 Rocket 4.3 18:52:42 10° N 18:58:31 43° ENE 19:02:32 19° SE
Cosmos 1934 Rocket 3.9 18:53:44 10° N 19:00:04 70° ENE 19:06:16 10° SSE
Cosmos 389 Rocket 3.0 18:58:39 10° N 19:01:01 32° NE 19:01:01 32° NE
USA 267 3.8 18:58:14 18° ENE 19:03:00 50° N 19:09:17 10° WNW
USA 276 4.2 19:01:54 10° SSW 19:02:13 12° S 19:02:13 12° S
Cosmos 1535 Rocket 4.5 18:58:24 10° N 19:04:26 58° ENE 19:09:50 13° SSE
NOSS 3-1 (C) 3.6 18:59:35 10° SW 19:04:43 66° NW 19:11:00 10° NE
Gbstr 26 Del rocket 4.5 19:01:21 10° WSW 19:09:17 88° SSE 19:15:08 21° ENE
Cosmos 2251 Rocket 3.9 19:06:36 10° S 19:11:26 37° ESE 19:16:15 10° NE
YAOGAN 1 4.1 19:07:29 10° SSW 19:11:29 37° W 19:15:31 10° NNW
Cosmos 1674 Rocket 3.8 19:07:22 10° N 19:11:41 48° ENE 19:12:54 37° ESE
CZ-4 R/B 1.6 19:12:26 10° S 19:16:14 63° WSW 19:20:01 10° NNW
Cosmos 1656 Rocket 4.3 19:12:12 10° NNW 19:17:17 38° NE 19:18:42 32° E
Terra 4.0 19:19:07 11° NE 19:19:07 11° NE 19:19:47 10° NE
Cosmos 2237 Rocket 2.2 19:13:54 10° SSW 19:19:37 86° WNW 19:25:22 10° NNE
Cosmos 2369 Rocket 2.9 19:14:34 10° NNW 19:19:46 37° NE 19:21:10 32° E
SL-4 R/B 3.4 19:16:22 10° SSW 19:19:00 24° SSE 19:19:00 24° SSE
Lacrosse 5 2.1 19:15:40 10° NW 19:20:45 61° NNE 19:22:30 39° E
Cosmos 1400 Rocket 4.4 19:22:52 10° N 19:25:02 22° NE 19:25:02 22° NE
SL-16 R/B 2.5 19:23:58 10° S 19:29:13 41° ESE 19:34:32 10° NE
Cosmos 1470 2.9 19:25:54 10° SSW 19:29:44 70° WNW 19:33:37 10° N
Cosmos 1943 Rocket 2.6 19:26:01 10° NW 19:31:37 62° WSW 19:35:34 19° S
NOSS 0 Rocket 4.5 19:25:50 10° SW 19:31:57 60° NW 19:38:09 10° NNE
Meteor 1-22 Rocket 3.9 19:28:27 10° S 19:33:42 71° E 19:39:03 10° NNE
SJ-6B 3.6 19:30:49 15° S 19:33:57 51° W 19:37:52 10° NNW
CZ-4C R/B 3.8 19:29:10 10° NW 19:34:48 31° NNE 19:38:12 22° ENE
Cosmos 2221 Rocket 3.5 19:32:59 10° N 19:37:33 90° NNW 19:38:56 45° S
ATLAS 3B R/B 3.5 19:32:44 10° WSW 19:39:39 54° NW 19:47:04 10° NE
CENTAUR R/B 3.6 19:32:06 10° NW 19:39:40 51° NNE 19:43:21 33° E
Okean O Rocket 2.0 19:39:33 25° S 19:42:03 61° WSW 19:46:29 10° NNW
COSMOS 2428 4.5 19:37:08 10° WSW 19:42:10 31° NW 19:47:13 10° NNE
ADEOS Rocket 3.4 19:38:43 25° SSE 19:43:38 78° ENE 19:50:45 10° NNW
Cosmos 2297 3.6 19:38:17 10° NNW 19:44:03 72° ENE 19:45:25 52° SE
Tiangong 0.7 19:43:07 10° SW 19:43:35 12° SW 19:43:35 12° SW
Cosmos 1153 Rocket 4.5 19:42:44 10° N 19:48:55 62° ENE 19:50:18 50° SE
Meteor 1-12 Rocket 4.3 19:43:40 10° SSW 19:49:31 85° WNW 19:55:31 10° NNE
IRIDIUM 106 4.2 19:44:38 10° N 19:49:51 64° E 19:50:08 63° ESE
CSL-04 Debris 4.4 19:48:23 24° S 19:51:40 67° WSW 19:57:05 10° NNW
Cosmos 2173 Rocket 4.4 19:47:56 10° N 19:53:29 42° ENE 19:53:29 42° ENE
MOS 1 4.3 19:53:44 57° E 19:54:16 59° ENE 19:59:49 10° N
Cosmos 407 Rocket 3.3 19:54:36 10° SSW 19:59:51 80° ESE 20:05:12 10° NNE
USA 229 DEB 3.4 19:55:57 10° SW 20:02:10 85° SE 20:09:04 10° NE
USA 229 3.4 19:56:01 10° SW 20:02:16 84° SE 20:09:09 10° NE
Meteor 1-24 Rocket 4.0 19:57:13 10° NNW 20:02:31 59° W 20:04:58 31° SSW
NOSS 3-2 (A) 4.3 19:59:01 10° NW 20:05:55 53° NE 20:07:54 43° ENE
Meteor 2-5 Rocket 4.4 20:01:41 10° NNW 20:07:11 53° W 20:10:22 24° SSW
USA 186 4.1 20:08:04 22° WNW 20:08:04 22° WNW 20:09:50 10° NW
CSL-04 Rocket 4.2 20:05:53 30° SSW 20:08:16 54° W 20:13:32 10° NNW
Cosmos 1733 Rocket 4.4 20:04:37 10° SW 20:08:42 38° WNW 20:12:47 10° N
Resurs 01 Rocket 1.9 20:09:57 65° W 20:09:57 65° W 20:14:19 10° NNW
SPOT 1/Viking Rocket 4.3 20:10:54 31° SSW 20:13:02 49° W 20:18:01 10° NNW
Cosmos 2100 Rocket 4.0 20:08:32 10° N 20:14:22 60° ENE 20:14:22 60° ENE
MetOp-B 4.4 20:16:32 57° NNE 20:16:32 57° NNE 20:21:06 10° N
Cosmos 1459 Rocket 4.1 20:10:04 10° N 20:16:04 58° ENE 20:16:04 58° ENE
IRS-1C Rocket 4.0 20:16:30 87° NNW 20:16:30 87° NNW 20:21:43 10° NNW
Cosmos 468 Rocket 4.2 20:13:24 10° NNW 20:17:55 63° N 20:17:55 63° N
NOSS 3-1 (A) 4.1 20:13:45 10° WSW 20:18:53 47° NNW 20:25:08 10° NE
Meteor 2-10 Rocket 4.1 20:20:30 54° NE 20:20:30 54° NE 20:25:02 10° NNE
Okean-O 3.4 20:24:16 50° WNW 20:24:16 50° WNW 20:28:07 10° NNW
Cosmos 1763 Rocket 3.6 20:20:19 10° NNW 20:24:57 69° WNW 20:24:57 69° WNW
Cosmos 540 Rocket 3.9 20:24:01 10° NNW 20:28:05 56° NNW 20:28:05 56° NNW
Cosmos 1025 Rocket 4.4 20:24:47 10° N 20:27:19 34° NNW 20:27:19 34° NNW
Cosmos 1140 Rocket 4.4 20:27:54 10° SW 20:32:51 46° WNW 20:37:52 10° NNE
Cosmos 1802 Rocket 4.3 20:36:01 10° N 20:41:15 58° NNE 20:41:15 58° NNE
Cosmos 2263 4.5 20:38:14 10° NNW 20:43:05 65° NW 20:43:05 65° NW
USA 267 3.2 20:45:35 78° NE 20:45:40 78° NNE 20:52:14 10° WNW
NOSS 3-2 (C) 4.3 20:39:24 10° NW 20:46:17 51° NE 20:46:51 50° NE
Ariane Rocket 4.2 20:52:40 37° N 20:52:40 37° N 20:55:43 10° NNW
Terra 3.7 20:57:51 24° N 20:57:51 24° N 20:59:45 10° N
Gbstr 26 Del rocket 4.4 20:48:55 10° W 20:57:02 79° N 20:57:28 76° NE
Cosmos 2016 Rocket 4.5 20:51:09 10° N 20:56:05 54° N 20:56:05 54° N
Lacrosse 5 3.5 20:58:50 10° WNW 21:01:41 29° W 21:01:41 29° W
Cosmos 2369 Rocket 3.2 20:58:35 10° NW 21:02:58 42° W 21:02:58 42° W
Cosmos 2237 Rocket 4.5 21:00:08 10° W 21:04:32 22° NW 21:08:56 10° NNE
SL-16 R/B 3.3 21:08:01 10° WSW 21:13:22 41° NW 21:18:45 10° NNE
CZ-4C R/B 3.2 21:17:32 10° NW 21:23:20 61° N 21:23:20 61° N
USA 238 DEB 4.3 21:19:22 10° NW 21:25:31 53° N 21:25:31 53° N
USA 238 4.3 21:19:28 10° NW 21:25:36 53° N 21:25:36 53° N
CENTAUR R/B 3.3 21:22:49 10° NW 21:30:30 68° WSW 21:30:30 68° WSW
ATLAS 3B R/B 4.4 21:25:45 10° WNW 21:32:05 30° N 21:38:16 11° NE
ATLAS 3B R/B 4.3 23:18:22 10° NW 23:25:06 33° NNE 23:25:25 33° NNE
